EW9240 Weather Reports


Display with metric or nautical units.
time (UTC)temp
F
wind
direction
speed
MPH
gust
MPH
rain 1hr
in
rain 24hr
in
rain mn
in
humidity
%
barometer
mb
20260508214553 63 283 0.0 3.0 0.00 0.00 0.00 56 1019.7
20260508213038 62 223 1.0 4.0 0.00 0.00 0.00 58 1019.8
20260508211511 62 221 2.0 6.0 0.00 0.00 0.00 57 1019.8
20260508210004 62 210 4.0 7.0 0.00 0.00 0.00 57 1019.9
20260508204555 61 213 0.0 6.0 0.00 0.00 0.00 60 1019.8
20260508203026 61 287 0.0 3.0 0.00 0.00 0.00 59 1020.0
20260508201511 61 141 1.0 10.0 0.00 0.00 0.00 60 1020.1
20260508200109 61 142 1.0 5.0 0.00 0.00 0.00 61 1020.1
20260508194549 60 218 1.0 5.0 0.00 0.00 0.00 61 1020.2
20260508193035 59 218 1.0 5.0 0.00 0.00 0.00 62 1020.1
20260508191518 59 216 0.0 3.0 0.00 0.00 0.00 62 1020.3
20260508190009 59 153 1.0 7.0 0.00 0.00 0.00 64 1020.4
20260508184634 58 120 0.0 5.0 0.00 0.00 0.00 64 1020.3
20260508183043 58 203 1.0 3.0 0.00 0.00 0.00 65 1020.2
20260508181547 57 198 0.0 5.0 0.00 0.00 0.00 67 1020.2
20260508180015 58 207 0.0 3.0 0.00 0.00 0.00 69 1020.1
20260508174600 58 212 2.0 4.0 0.00 0.00 0.00 68 1020.0
20260508173047 56 276 0.0 3.0 0.00 0.00 0.00 71 1019.8
20260508171529 56 210 1.0 5.0 0.00 0.00 0.00 69 1019.6
20260508170016 55 209 1.0 4.0 0.00 0.00 0.00 72 1019.3
20260508164605 54 113 0.0 3.0 0.00 0.00 0.00 73 1019.1
20260508163046 54 213 0.0 4.0 0.00 0.00 0.00 73 1019.4
20260508161535 54 210 0.0 4.0 0.00 0.00 0.00 74 1019.1
20260508160021 53 113 0.0 3.0 0.00 0.00 0.00 75 1019.1
20260508154507 53 112 0.0 4.0 0.00 0.00 0.00 75 1019.0
20260508153058 52 216 0.0 2.0 0.00 0.00 0.00 76 1019.0
20260508151549 51 217 0.0 2.0 0.00 0.00 0.00 78 1019.2
20260508150034 51 204 0.0 4.0 0.00 0.00 0.00 79 1019.5
20260508144541 50 208 0.0 2.0 0.00 0.00 0.00 80 1019.5
20260508143114 50 217 0.0 4.0 0.00 0.00 0.00 80 1019.5
20260508141551 50 199 0.0 6.0 0.00 0.00 0.00 79 1019.1
20260508140027 50 209 0.0 3.0 0.00 0.00 0.00 78 1018.7
20260508134510 50 210 0.0 3.0 0.00 0.00 0.00 77 1018.3
20260508133115 50 217 0.0 0.0 0.00 0.00 0.00 77 1017.9
20260508131507 50 217 0.0 0.0 0.00 0.00 0.00 77 1017.6
20260508130054 51 217 0.0 0.0 0.00 0.00 0.00 77 1017.3
20260508124542 51 206 0.0 1.0 0.00 0.00 0.00 76 1017.2
20260508123026 51 221 0.0 2.0 0.00 0.00 0.00 76 1017.1
20260508121602 51 223 0.0 3.0 0.00 0.00 0.00 76 1017.0
20260508120038 51 214 0.0 0.0 0.00 0.00 0.00 79 1016.9
20260508114556 50 310 0.0 0.0 0.00 0.00 0.00 82 1016.7
20260508113058 50 340 0.0 0.0 0.00 0.00 0.00 83 1016.5
20260508111525 49 340 0.0 0.0 0.00 0.00 0.00 83 1016.3
20260508110022 49 340 0.0 0.0 0.00 0.00 0.00 82 1016.2
20260508104600 50 340 0.0 0.0 0.00 0.00 0.00 83 1016.1
20260508103056 50 340 0.0 0.0 0.00 0.00 0.00 82 1015.9
20260508101533 49 340 0.0 0.0 0.00 0.00 0.00 83 1015.8
20260508100020 49 340 0.0 0.0 0.00 0.00 0.00 82 1015.6
20260508094606 49 340 0.0 0.0 0.00 0.00 0.00 82 1015.5
20260508093035 50 340 0.0 0.0 0.00 0.00 0.00 82 1015.4
20260508091514 50 340 0.0 0.0 0.00 0.00 0.00 81 1015.3
20260508090113 50 340 0.0 0.0 0.00 0.00 0.00 80 1015.2
20260508084546 51 340 0.0 0.0 0.00 0.00 0.00 80 1015.0
20260508083037 51 340 0.0 0.0 0.00 0.00 0.00 79 1015.0
20260508081515 52 340 0.0 0.0 0.00 0.00 0.00 78 1014.9
20260508080105 52 340 0.0 0.0 0.00 0.00 0.00 78 1014.8
20260508074550 52 340 0.0 0.0 0.00 0.00 0.00 77 1014.8
20260508073034 53 340 0.0 0.0 0.00 0.00 0.00 76 1014.7
20260508071520 53 340 0.0 0.0 0.00 0.00 0.00 75 1014.7
20260508070106 54 340 0.0 0.0 0.00 0.00 0.00 74 1014.9
20260508064546 54 340 0.0 0.0 0.00 0.00 0.00 73 1014.7
20260508063032 55 340 0.0 0.0 0.00 0.00 0.00 71 1014.7
20260508061519 55 340 0.0 0.0 0.00 0.00 0.00 71 1014.8
20260508060007 55 334 0.0 0.0 0.00 0.00 0.00 71 1014.7
20260508054554 56 335 0.0 0.0 0.00 0.00 0.00 69 1014.7
20260508053059 56 334 0.0 0.0 0.00 0.00 0.00 68 1014.8
20260508051523 57 335 0.0 0.0 0.00 0.00 0.00 66 1014.6
20260508050009 58 334 0.0 0.0 0.00 0.00 0.00 65 1014.6
20260508043045 60 335 0.0 0.0 0.00 0.00 0.00 60 1014.5
20260508041554 61 335 0.0 0.0 0.00 0.00 0.00 57 1014.4
20260508040025 62 335 0.0 0.0 0.00 0.00 0.00 56 1014.4
20260508034612 63 335 0.0 0.0 0.00 0.00 0.00 52 1014.2
20260508033038 64 335 0.0 0.0 0.00 0.00 0.00 48 1013.9
20260508031524 66 335 0.0 0.0 0.00 0.00 0.00 44 1013.8
20260508030021 67 334 0.0 1.0 0.00 0.00 0.00 42 1013.8
20260508024607 68 335 0.0 2.0 0.00 0.00 0.00 41 1013.8
20260508023047 68 307 0.0 2.0 0.00 0.00 0.00 40 1013.9
20260508021534 68 311 0.0 1.0 0.00 0.00 0.00 40 1013.9
20260508020023 68 291 0.0 2.0 0.00 0.00 0.00 40 1014.1
20260508014502 68 297 0.0 5.0 0.00 0.00 0.00 40 1014.2
20260508013052 68 319 0.0 2.0 0.00 0.00 0.00 41 1014.2
20260508011543 68 284 0.0 1.0 0.00 0.00 0.00 44 1014.3
20260508010000 68 293 1.0 3.0 0.00 0.00 0.00 44 1014.4
20260508004549 68 302 2.0 5.0 0.00 0.00 0.00 45 1014.5
20260508003036 67 196 0.0 3.0 0.00 0.00 0.00 46 1014.6
20260508001613 67 286 1.0 6.0 0.00 0.00 0.00 46 1014.8
20260508000056 67 283 0.0 4.0 0.00 0.00 0.00 45 1014.9
20260507234540 67 330 2.0 5.0 0.00 0.00 0.00 46 1015.0
20260507233031 67 300 0.0 5.0 0.00 0.00 0.00 46 1015.2
20260507231503 67 293 2.0 6.0 0.00 0.00 0.00 46 1015.2
20260507230052 66 300 1.0 7.0 0.00 0.00 0.00 46 1015.5
20260507224539 66 295 3.0 5.0 0.00 0.00 0.00 49 1015.5
20260507223021 66 263 1.0 5.0 0.00 0.00 0.00 49 1015.8
20260507221506 65 250 3.0 8.0 0.00 0.00 0.00 52 1015.8
20260507220056 65 326 1.0 6.0 0.00 0.00 0.00 52 1016.0